World > North America > United States > New York > Camden

Camden, NY Hourly Weather Conditions

Feedback E-mail the Weather

Quick WX

Camden, NY Weather Maps

°F °C°F °C
Camden Weather Map
UTC Time: 2/2/2023, 17:35
Your Time:

Camden, NY Regional Weather

Expires:202302021800;;682553
ASUS41 KBGM 021710
RWRBGM

REGIONAL WEATHER ROUNDUP
NATIONAL WEATHER SERVICE BINGHAMTON NY
1200 PM EST THU FEB 02 2023

Note: "fair" indicates few or no clouds below 12,000 feet with no
significant weather and/or obstructions to visibility.

* = Station(s) that does not report precipitation, such as rain, 
snow, etc, also no thunder or fog.


NYZ009-015>018-022>025-036-037-044>046-055>057-062-021800
...Central New York...
  
CITY           SKY/WX    TMP DP  RH WIND       PRES   REMARKS
Binghamton     CLOUDY    25   8  48 SW9       29.98F WCI  15          
Cortland       CLOUDY    28  10  47 SW12      29.99F WCI  18          
Dansville      CLOUDY    32   5  32 SW9       30.01F WCI  24          
Elmira         CLOUDY    31  11  43 SW16G22   30.02F WCI  20          
Endicott       PTSUNNY   28   7  40 SW12G17   30.03F WCI  18          
Ithaca         PTSUNNY   28  12  51 S10       30.00F WCI  19          
Hamilton       CLOUDY    27  12  54 S8        30.00F WCI  18          
Monticello     SUNNY     29  10  45 W8G17     30.04F WCI  21          
Norwich        CLOUDY    27  10  50 S8        30.05F WCI  18          
Oneonta          N/A     25   5  42 SW9G17    29.95F WCI  15          
Penn Yan       CLOUDY    29  10  45 SW13G21   29.98F WCI  19          
Rome           CLOUDY    26  13  57 S10       30.04F WCI  16          
Seneca Falls   CLOUDY    28  12  50 S12       30.02F WCI  18          
Sidney         PTSUNNY   30   9  40 W10       30.01F WCI  21          
Skaneateles    CLOUDY    27  10  50 SW9G21    29.98F WCI  17          
Syracuse       CLOUDY    30  11  45 S9        30.01F WCI  22          
$$
 

SKY/WX - Weather  TMP - Temperature  DP - Dew Point  RH - Humidity
WIND - Wind Direction/Speed PRES - Barometric Pressure VSB - Visibility
WCI - Wind Chill Index E13G22 Wind - East Wind 13 mph/Gusts of 22 mph

Trending Headlines

Trending Entertainment Headlines

Camden Radar Loop

Use the map search tool if you want to place a location marker on the radar map...

Camden Quick Facts

National Two Day Weather Forecast


E-mail the Camden Weather Forecast

Voice your opinion or tell us about page issues...